Home   Weather   Lillesand   Past weeks

Flag for Norway Past Weather in Lillesand, Norway — Yesterday and Last 2 Weeks

Now
36 °F

Chilly.


Feels Like: 32 °F
Forecast: 38 / 45 °F
Wind: 5 mph from Northeast

Location: Kristiansand / Kjevik

Current Time: Apr 28, 2017 at 3:01:53 am

Latest Report: Apr 28, 2017 at 2:00 am


Visibility: N/A

Pressure: 29.83 "Hg

Humidity: 92%

Dew Point: 34 °F

Location of LillesandLocation

Past Weather in Lillesand — Graph

°F

Lillesand Temperature Yesterday

Maximum temperature yesterday: 46 °F (at 12:00 pm)
Minimum temperature yesterday: 30 °F (at 6:00 am)
Average temperature yesterday: 39 °F

High & Low Weather Summary for the Past Weeks

 TemperatureHumidityPressure
High54 °F (Apr 22, 12:00 pm)99% (Apr 17, 4:00 am)30.59 "Hg (Apr 17, 4:00 am)
Low26 °F (Apr 19, 6:00 am)24% (Apr 26, 7:00 pm)29.38 "Hg (Apr 24, 10:00 am)
Average41 °F69%29.92 "Hg
* Reported Apr 13 2:00 am — Apr 28 2:00 am, Lillesand, Weather by CustomWeather, © 2017

Note: Actual official high and low records may vary slightly from our data, if they occured in-between our weather recording intervals... More about our weather records

Advertising

Lillesand Weather History for the Previous 24 Hours

Scroll right to see more
 ConditionsComfort  
Time TempWeatherWind HumidityBarometerVisibility
2:00 am
Fri, Apr 28
36 °FChilly.5 mph92%29.83 "HgN/A
1:00 am35 °FChilly.5 mph92%29.83 "HgN/A
12:00 am36 °FChilly.5 mph92%29.83 "HgN/A
11:00 pm
Thu, Apr 27
36 °FChilly.5 mph94%29.83 "HgN/A
10:00 pm36 °FChilly.6 mph93%29.82 "HgN/A
9:00 pm37 °FChilly.9 mph92%29.80 "HgN/A
8:00 pm42 °FQuite cool.2 mph92%29.78 "HgN/A
7:00 pm43 °FQuite cool.3 mph88%29.78 "HgN/A
6:00 pm44 °FQuite cool.5 mph82%29.78 "HgN/A
5:00 pm44 °FQuite cool.5 mph84%29.78 "HgN/A
4:00 pm42 °FQuite cool.2 mph85%29.78 "HgN/A
3:00 pm45 °FCool.5 mph81%29.78 "HgN/A
2:00 pm45 °FCool.6 mph76%29.77 "HgN/A
1:00 pm46 °FCool.8 mph68%29.76 "HgN/A
12:00 pm46 °FCool.8 mph69%29.76 "HgN/A
11:00 am45 °FCool.6 mph61%29.76 "HgN/A
10:00 am45 °FCool.2 mph53%29.76 "HgN/A
9:00 am40 °FQuite cool.2 mph63%29.76 "HgN/A
8:00 am37 °FChilly.1 mph73%29.76 "HgN/A
7:00 am32 °FChilly.1 mph84%29.76 "HgN/A
6:00 am30 °FChilly.2 mph88%29.76 "HgN/A
5:00 am31 °FChilly.2 mph84%29.76 "HgN/A
4:00 am32 °FChilly.1 mph82%29.77 "HgN/A
3:00 am35 °FChilly.1 mph65%29.78 "HgN/A
Weather by CustomWeather, © 2017

See weather overviewHow to use our weather pages